Regional Weather Roundup
Issued by NWS Charleston, SC

Current Version | Previous Version | Graphics & Text | Print | Product List | Glossary On
Versions: 1 2 3 4 5 6 7 8 9 10 11 12 13 14 15 16 17 18 19 20 21 22 23 24 25 26 27 28 29 30 31 32 33 34 35 36 37 38 39 40 41 42 43 44 45 46 47 48 49 50
508
ASUS42 KCHS 190612
RWRCHS

REGIONAL WEATHER ROUNDUP
NATIONAL WEATHER SERVICE CHARLESTON SC
200 AM EDT THU OCT 19 2017

NOTE: "FAIR" INDICATES FEW OR NO CLOUDS BELOW 12,000 FEET WITH NO
SIGNIFICANT WEATHER AND/OR OBSTRUCTIONS TO VISIBILITY.

NOT ALL STATIONS ARE QUALITY CONTROLLED. USE DATA WITH CAUTION...
ESPECIALLY DEWPOINT OBSERVATIONS.

SCZ027-030-031-034>040-042>050-190700-
...SOUTHEAST SOUTH CAROLINA...

CITY           SKY/WX    TMP DP  RH WIND       PRES   REMARKS
N CHARLESTON   CLEAR     58  55  90 N7        30.24F
6HR MIN TEMP:  58; 6HR MAX TEMP:  64;

WATERFRONT PRK   N/A     64  57  78 N7        30.09F
JOHNS ISLAND   FAIR      63  57  82 N6        30.24S
PINOPOLIS        N/A     64  57  77 NE10      30.16F
MONCKS CORNER  FAIR      57  50  77 NE3       30.25F
SUMMERVILLE    FAIR      52  52 100 CALM      30.26F
BEAUFORT MCAS  CLEAR     60  57  89 MISG      30.24F
6HR MIN TEMP:  60; 6HR MAX TEMP:  66;

BEAUFORT ARPT  FAIR      63  55  77 NE10      30.23F
HILTON HEAD IS CLEAR     66  57  72 N13       30.23F
WALTERBORO     CLEAR     52  50  93 CALM      30.26F
ALLENDALE      NOT AVBL

...SOUTHERN MIDLANDS AND PEE DEE...

CITY           SKY/WX    TMP DP  RH WIND       PRES   REMARKS
GEORGETOWN     NOT AVBL
KINGSTREE      FAIR      48  46  93 CALM      30.26F
ORANGEBURG     CLEAR     49  46  90 CALM      30.27F
6HR MIN TEMP:  49; 6HR MAX TEMP:  61;

BARNWELL         N/A     50  45  81 CALM      30.26F
AIKEN          FAIR      45  41  87 CALM      30.30F
MANNING        FOG       50  50 100 MISG      30.26F VSB<1/4
COLUMBIA       CLEAR     47  45  93 CALM      30.28S
6HR MIN TEMP:  46; 6HR MAX TEMP:  61;

SUMTER         CLEAR     49  41  73 NE7       30.25F
6HR MIN TEMP:  49; 6HR MAX TEMP:  56;

FLORENCE       CLEAR     52  46  80 N5        30.28F
6HR MIN TEMP:  52; 6HR MAX TEMP:  59;

MYRTLE BEACH   CLEAR     57  52  83 N6        30.26F
N MYRTLE BEACH CLEAR     57  53  86 N7        30.25S
6HR MIN TEMP:  57; 6HR MAX TEMP:  62;


$$

GAZ063-065-086>088-099>101-113>116-118-119-134>141-150-190700-
...SOUTHEAST GEORGIA...

CITY           SKY/WX    TMP DP  RH WIND       PRES   REMARKS
SAVANNAH ARPT  CLEAR     61  56  83 NE8       30.23F
6HR MIN TEMP:  58; 6HR MAX TEMP:  68;

HUNTER AAF     PTCLDY    62  56  81 NE6       30.20F
6HR MIN TEMP:  62; 6HR MAX TEMP:  68;

FORT STEWART   CLEAR     59  54  84 N5        30.21F
6HR MIN TEMP:  59; 6HR MAX TEMP:  64;

STATESBORO     CLEAR     55  47  77 CALM      30.25F
SYLVANIA       CLEAR     56  50  80 NE5       30.26F
CLAXTON        FAIR      55  54  97 CALM      30.24F

...CSRA...CENTRAL AND FAR SOUTHEAST GEORGIA...

CITY           SKY/WX    TMP DP  RH WIND       PRES   REMARKS
THOMSON        CLEAR     42  40  94 CALM      30.33S
AUGUSTA-BUSH   CLEAR     47  44  90 CALM      30.27F
6HR MIN TEMP:  46; 6HR MAX TEMP:  56;

AUGUSTA-DANIEL CLEAR     57  41  55 N5        30.28S
SWAINSBORO     FAIR      55  45  67 MISG      30.26F
VIDALIA        CLEAR     57  54  88 NE5       30.24F
EASTMAN        FAIR      51  48  90 CALM      30.27F
HAZLEHURST     FAIR      60  50  69 NE5       30.22F
ALMA           CLEAR     61  55  81 VRB3      30.22F
6HR MIN TEMP:  60; 6HR MAX TEMP:  64;

WAYCROSS       CLEAR     61  58  90 NE5       30.21F
JESUP          NOT AVBL
BAXLEY         FAIR      59  55  88 NE6       30.22F
BRUNSWICK      CLEAR     64  61  88 N6        30.20F
SAINT SIMONS   CLOUDY    68  64  87 N10       30.18F
6HR MIN TEMP:  68; 6HR MAX TEMP:  73;


$$

SCZ027-028-034-036>038-045-046-048>050-GAZ119-141-190700-
...LAKE AND SUPPLEMENTAL COASTAL OBSERVATIONS...

STATION/POSITION TIME  TEMP    WIND        PRES    WAVE   SWELL
                       AIR SEA DIR/SP/G            HT/PER HT/PER/DIR
                 (UTC) (F)     (DEG/KT/KT) (MB)    (FT/S) (FT/S/D)
WINYAH BAY       NOT AVBL
LAKE MURRAY      0520   54      CALM  /  2 1024.7F
ACE BASIN NERRS  0445   62      10/  2     1025.0
FORT PULASKI     0548      74   30/  9/ 11 1023.5F
SAPELO ISLAND    0500   67      20/  9     1023.0

$$

ANZ835-935-AMZ111-154-330-350-352-354-370-450-454-472-190700-
...C-MAN AND BUOY OBSERVATIONS...

STATION/POSITION TIME  TEMP    WIND        PRES    WAVE   SWELL
                       AIR SEA DIR/SP/G            HT/PER HT/PER/DIR
                 (UTC) (F)     (DEG/KT/KT) (MB)    (FT/S) (FT/S/D)
BUOY 41004       0550   74 79   30/ 19/ 23 1021.9F   8/ 9   5/100/ 9
BUOY 41008       0550   74 77   50/ 23/ 27 1021.2F   6/ 9   3/120/ 9
FOLLY BEACH CMAN 0500   65     360/ 11/ 13 1024.4F
CAPERS NEARSHORE 0508   64 74   20/ 16/ 21 1023.3F
FRIPP NEARSHORE  0508   69      30/ 17/ 21   N/A


STATION/POSITION TIME  TEMP    WIND        PRES    WAVE   SWELL
                       AIR SEA DIR/SP/G            HT/PER HT/PER/DIR
                 (UTC) (F)     (DEG/KT/KT) (MB)    (FT/S) (FT/S/D)
5E ST. MARYS GA  0530      78                N/A     8/10   2/110/11
FRYING PAN BUOY  0550   72 76   30/ 21/ 25 1022.4F   7/ 9   3/130/ 9
BUOY 41025       0550   74 82   90/ 10/ 14 1024.0S   5/ 9   5/100/ 9
CAPE LOOKOUT NC  0500   64     360/ 12/ 15 1024.1F
BUOY 41002       0550   77 80   70/ 17/ 21 1019.8F   8/ 8   3/ 90/ 9
BUOY 41010       NOT AVBL
ST AUGUSTINE FL  0600   77 78   30/ 20/ 22 1019.9F


$$




USA.gov is the U.S. government's official web portal to all federal, state and local government web resources and services.